Regional Weather Roundup
Issued by NWS

Home | Current Version | Previous Version | Graphics & Text | Print | Product List | Glossary On
Versions: 1 2 3 4 5 6 7 8 9 10 11 12 13 14 15 16 17 18 19 20 21 22 23 24 25 26 27 28 29 30 31 32 33 34 35 36 37 38 39 40 41 42 43 44 45 46 47 48 49 50
086
ASUS43 KFSD 251502
RWRSD

WEATHER ROUNDUP FOR SOUTH DAKOTA
NATIONAL WEATHER SERVICE SIOUX FALLS SD
1000 AM CDT TUE JUL 25 2017

NOTE: "FAIR" INDICATES FEW OR NO CLOUDS BELOW 12,000 FEET WITH NO
SIGNIFICANT WEATHER AND/OR OBSTRUCTIONS TO VISIBILITY.


SDZ001>005-009-010-012>017-251600-
NORTHWEST AND NORTH CENTRAL SOUTH DAKOTA

CITY           SKY/WX    TMP DP  RH WIND       PRES   REMARKS
BUFFALO          N/A     73  57  57 N18       29.93R
FAITH            N/A     84  63  49 NE18      29.89R
MOBRIDGE       CLOUDY    74  67  78 N9        29.86S
$$

SDZ012>016-024>037-041>051-057-063-072>074-251600-
SOUTHWEST AND SOUTH CENTRAL SOUTH DAKOTA

CITY           SKY/WX    TMP DP  RH WIND       PRES   REMARKS
RAPID CTY ARPT MOSUNNY   81  58  45 N14G20    29.96S
PIERRE         SUNNY     82  65  56 E9        29.84R
CUSTER         CLOUDY    74  53  48 NE18G24   30.11R
ELLSWORTH AFB  MOSUNNY   81  58  45 N9        29.96R
PHILIP         MOSUNNY   82  63  52 E7        29.89R
PINE RIDGE     CLOUDY    83  64  52 SW7       29.94R
SPEARFISH      FAIR      79  59  50 SE6       30.03R
WINNER         FAIR      87  63  44 W12       29.88R
$$

SDZ004>011-016>023-039-040-251600-
NORTHEAST SOUTH DAKOTA

CITY           SKY/WX    TMP DP  RH WIND       PRES   REMARKS
ABERDEEN       CLOUDY    75  69  81 N9        29.88S
WATERTOWN      CLOUDY    76  69  79 S10       29.89R
BROOKINGS      SUNNY     79  70  74 S14       29.91R
SISSETON         N/A     74  69  85 E3        29.86F
$$

SDZ017-020-022-023-036>040-048>070-251600-
SOUTHEAST SOUTH DAKOTA

CITY           SKY/WX    TMP DP  RH WIND       PRES   REMARKS
SIOUX FALLS    MOSUNNY   81  72  74 S15G24    29.91S
HURON          SUNNY     82  69  64 S9        29.84F
CHAMBERLAIN    SUNNY     87  64  46 W9        29.86S
MITCHELL       SUNNY     87  66  49 SW10      29.87R
YANKTON        SUNNY     87  69  54 S13       29.90S
$$

ABBREVIATIONS USED IN REMARKS
   TC - TEMPERATURE IN CELSIUS
  WCI - WIND CHILL INDEX
   HX - HEAT INDEX
  VSB - VISIBILITY





USA.gov is the U.S. government's official web portal to all federal, state and local government web resources and services.